MELBOURNE AIRPORT, Australia

7:56 PM AEDT on January 18, 2017 (GMT +1100)
Melbourne International

Weather History for YMML - October, 2012

Change the Weather History Date:

Sunday, October 28, 2012

  Actual Average Record
Temperature  
Mean Temperature 56 °F -  
Max Temperature 63 °F 68 °F 82 °F (2007)
Min Temperature 48 °F 48 °F 38 °F (2016)
Degree Days  
Heating Degree Days 10    
Growing Degree Days 6 (Base 50)    
Moisture  
Dew Point 45 °F    
Average Humidity 69    
Maximum Humidity 87    
Minimum Humidity 39    
Precipitation  
Precipitation 0.00 in 0.08 in - ()
Sea Level Pressure  
Sea Level Pressure 30.24 in    
Wind  
Wind Speed 7 mph ()    
Max Wind Speed 14 mph    
Max Gust Speed -    
Visibility 8.6 miles    
Events      
Averages and records for this station are not official NWS values.
T = Trace of Precipitation, MM = Missing Value Source: Averaged Metar Reports

Daily Weather History Graph

Daily Weather History Graph

Search for Another Location

Airport or City:

Trip Planner

Search our weather history database for the weather conditions in past years. The results will help you decide how hot, cold, wet, or windy it might be!

Date:

Astronomy

Oct. 28, 2012 Rise Set
Actual Time 6:18 AM AEDT 7:50 PM AEDT
Civil Twilight 5:50 AM AEDT 8:18 PM AEDT
Nautical Twilight 5:17 AM AEDT 8:52 PM AEDT
Astronomical Twilight 4:42 AM AEDT 9:27 PM AEDT
Moon 6:28 PM AEDT (10/28) 5:06 AM AEDT (10/28)
Length of Visible Light 14h 27m
Length of Day
13h 32m
Waxing Gibbous, 97% of the Moon is Illuminated
Oct 28
Waxing Gibbous
Oct 30
Full
Nov 7
Last Quarter
Nov 14
New
Nov 21
First Quarter

Hourly Weather History & Observations

Time (AEDT) Temp. Dew Point Humidity Pressure Visibility Wind Dir Wind Speed Gust Speed Precip Events Conditions
12:00 AM 52 °F 45 °F 69% 30.26 in 19 mi South 8.1 mph - -   Partly Cloudy
12:00 AM 51.8 °F 44.6 °F 76% 30.24 in 6.2 mi South 8.1 mph - N/A   Mostly Cloudy
1:00 AM 51.8 °F 46.4 °F 82% 30.24 in 6.2 mi South 9.2 mph - N/A   Mostly Cloudy
1:30 AM 51.8 °F 46.4 °F 82% 30.24 in 6.2 mi South 8.1 mph - N/A   Mostly Cloudy
2:00 AM 51 °F 46 °F 76% 30.25 in - South 5.8 mph - -  
2:00 AM 51.8 °F 46.4 °F 82% 30.24 in 6.2 mi South 5.8 mph - N/A   Mostly Cloudy
2:30 AM 51.8 °F 46.4 °F 82% 30.24 in 6.2 mi South 6.9 mph - N/A   Mostly Cloudy
3:00 AM 51 °F 43 °F 65% 30.25 in 19 mi South 9.2 mph - -   Partly Cloudy
3:00 AM 51.8 °F 42.8 °F 71% 30.24 in 6.2 mi South 9.2 mph - N/A   Mostly Cloudy
3:30 AM 50.0 °F 44.6 °F 82% 30.24 in 6.2 mi South 6.9 mph - N/A   Mostly Cloudy
4:00 AM 50.0 °F 44.6 °F 82% 30.24 in 6.2 mi South 8.1 mph - N/A   Mostly Cloudy
4:30 AM 50.0 °F 44.6 °F 82% 30.24 in 6.2 mi South 3.5 mph - N/A   Mostly Cloudy
5:00 AM 50 °F 45 °F 78% 30.25 in - South 4.6 mph - -  
5:00 AM 50.0 °F 44.6 °F 82% 30.24 in 6.2 mi South 4.6 mph - N/A   Mostly Cloudy
6:00 AM 50 °F 46 °F 80% 30.26 in 19 mi East 4.6 mph - -   Partly Cloudy
6:00 AM 50.0 °F 46.4 °F 87% 30.24 in 6.2 mi East 4.6 mph - N/A   Mostly Cloudy
6:30 AM 50.0 °F 46.4 °F 87% 30.24 in 6.2 mi SSE 3.5 mph - N/A   Mostly Cloudy
7:00 AM 50.0 °F 46.4 °F 87% 30.27 in 6.2 mi WSW 4.6 mph - N/A   Mostly Cloudy
7:30 AM 50.0 °F 46.4 °F 87% 30.27 in 6.2 mi West 4.6 mph - N/A   Mostly Cloudy
8:00 AM 51 °F 46 °F 77% 30.29 in - SW 4.6 mph - -  
8:00 AM 51.8 °F 46.4 °F 82% 30.27 in 6.2 mi SW 4.6 mph - N/A   Mostly Cloudy
8:30 AM 51.8 °F 44.6 °F 76% 30.27 in 6.2 mi SSW 4.6 mph - N/A   Mostly Cloudy
9:00 AM 53 °F 45 °F 66% 30.29 in 19 mi South 3.5 mph - -   Partly Cloudy
9:00 AM 51.8 °F 44.6 °F 76% 30.27 in 6.2 mi South 3.5 mph - N/A   Overcast
9:30 AM 53.6 °F 44.6 °F 72% 30.27 in 6.2 mi South 4.6 mph - N/A   Overcast
10:00 AM 55.4 °F 42.8 °F 63% 30.27 in 6.2 mi SE 6.9 mph - N/A   Mostly Cloudy
10:30 AM 55.4 °F 44.6 °F 67% 30.27 in 6.2 mi East 6.9 mph - N/A   Mostly Cloudy
11:00 AM 56 °F 44 °F 55% 30.28 in - SSW 6.9 mph - -  
11:00 AM 55.4 °F 44.6 °F 67% 30.27 in 6.2 mi SSW 6.9 mph - N/A   Mostly Cloudy
11:30 AM 59.0 °F 44.6 °F 59% 30.27 in 6.2 mi SSE 6.9 mph - N/A   Scattered Clouds
12:00 PM 58 °F 44 °F 49% 30.27 in 19 mi South 6.9 mph - -   Partly Cloudy
12:00 PM 59.0 °F 44.6 °F 59% 30.24 in 6.2 mi South 6.9 mph - N/A   Partly Cloudy
12:30 PM 60.8 °F 44.6 °F 55% 30.24 in 6.2 mi SSE 8.1 mph - N/A   Partly Cloudy
1:00 PM 60.8 °F 44.6 °F 55% 30.24 in 6.2 mi South 6.9 mph - N/A   Partly Cloudy
1:30 PM 62.6 °F 44.6 °F 52% 30.21 in 6.2 mi SSE 8.1 mph - N/A   Partly Cloudy
2:00 PM 63 °F 44 °F 39% 30.23 in - SSE 9.2 mph - -  
2:00 PM 62.6 °F 44.6 °F 52% 30.21 in 6.2 mi SSE 9.2 mph - N/A   Partly Cloudy
2:30 PM 62.6 °F 46.4 °F 55% 30.21 in 6.2 mi SE 9.2 mph - N/A   Scattered Clouds
3:00 PM 63 °F 45 °F 41% 30.22 in 19 mi South 10.4 mph - -   Partly Cloudy
3:00 PM 62.6 °F 44.6 °F 52% 30.21 in 6.2 mi South 10.4 mph - N/A   Mostly Cloudy
3:30 PM 62.6 °F 44.6 °F 52% 30.21 in 6.2 mi South 11.5 mph - N/A   Mostly Cloudy
4:00 PM 62.6 °F 44.6 °F 52% 30.18 in 6.2 mi South 13.8 mph - N/A   Mostly Cloudy
5:00 PM 61 °F 45 °F 44% 30.22 in - SSE 13.8 mph - -  
5:00 PM 60.8 °F 44.6 °F 55% 30.21 in - SSE 13.8 mph - N/A   Clear
5:30 PM 60.8 °F 44.6 °F 55% 30.21 in - SSE 12.7 mph - N/A   Clear
6:00 PM 59 °F 45 °F 49% 30.22 in 19 mi SSE 11.5 mph - -   Partly Cloudy
6:00 PM 59.0 °F 44.6 °F 59% 30.21 in - SSE 11.5 mph - N/A   Clear
6:30 PM 59.0 °F 44.6 °F 59% 30.21 in - South 11.5 mph - N/A   Clear
7:00 PM 57.2 °F 44.6 °F 63% 30.21 in - South 10.4 mph - N/A   Clear
7:30 PM 55.4 °F 44.6 °F 67% 30.21 in - South 10.4 mph - N/A   Clear
8:00 PM 54 °F 46 °F 65% 30.22 in - South 6.9 mph - -  
8:00 PM 53.6 °F 46.4 °F 77% 30.21 in - South 6.9 mph - N/A   Clear
8:30 PM 51.8 °F 44.6 °F 76% 30.21 in - SSW 5.8 mph - N/A   Clear
9:00 PM 51 °F 45 °F 73% 30.23 in 12 mi SW 5.8 mph - -   Haze
9:00 PM 51.8 °F 44.6 °F 76% 30.21 in - SW 5.8 mph - N/A   Clear
9:30 PM 50.0 °F 44.6 °F 82% 30.21 in - WSW 5.8 mph - N/A   Clear
10:00 PM 50.0 °F 44.6 °F 82% 30.21 in - WSW 6.9 mph - N/A   Clear
10:30 PM 48.2 °F 44.6 °F 87% 30.21 in - West 6.9 mph - N/A   Clear
11:00 PM 49 °F 44 °F 79% 30.23 in - West 6.9 mph - -  
11:00 PM 48.2 °F 44.6 °F 87% 30.21 in - West 6.9 mph - N/A   Clear
11:30 PM 48.2 °F 44.6 °F 87% 30.21 in - WNW 6.9 mph - N/A   Clear